Overview Statistics Trail Chart Weather Telemetry Raw packets
 

This is the latest recevied weather packets stored in our database for station/object W7TRD. If no packets are shown the sender has not sent any weather packets the latest 10 day(s).

<< 103 104 105 106 107 108 109 >>
Time Temp. Humidity Pressure Rain* Wind** Luminosity Snow
1787844549 18.89° C 72% 1019.4 hPa 0 mm - 63 W/m² -
1787844245 18.33° C 75% 1019.2 hPa 0 mm - 64 W/m² -
1787843943 17.78° C 80% 1019.3 hPa 0 mm - 95 W/m² -
1787843639 17.78° C 82% 1019.4 hPa 0 mm - 188 W/m² -
1787843335 17.78° C 82% 1019.2 hPa 0 mm - 139 W/m² -
1787843036 17.78° C 83% 1019.1 hPa 0 mm - 74 W/m² -
1787842735 17.78° C 82% 1019.1 hPa 0 mm - 130 W/m² -
1787842431 17.78° C 82% 1019.3 hPa 0 mm - 157 W/m² -
1787842131 17.22° C 85% 1019 hPa 0 mm - 150 W/m² -
1787841826 16.67° C 85% 1019.1 hPa 0 mm - 79 W/m² -
1787841522 16.67° C 86% 1019.2 hPa 0 mm - 72 W/m² -
1787841221 16.11° C 87% 1019.2 hPa 0 mm - 72 W/m² -
1787840916 16.11° C 88% 1019.1 hPa 0 mm - 71 W/m² -
1787840611 15.56° C 89% 1019.1 hPa 0 mm - 66 W/m² -
1787840307 15.56° C 90% 1018.9 hPa 0 mm - 57 W/m² -
1787840007 15° C 92% 1018.9 hPa 0 mm - 46 W/m² -
1787839707 15° C 92% 1018.8 hPa 0 mm - 39 W/m² -
1787839401 14.44° C 94% 1018.8 hPa 0 mm - 37 W/m² -
1787839101 14.44° C 94% 1018.8 hPa 0 mm - 29 W/m² -
1787838800 13.89° C 94% 1018.7 hPa 0 mm - 21 W/m² -
1787838495 13.89° C 94% 1018.6 hPa 0 mm - 15 W/m² -
1787838194 13.89° C 94% 1018.7 hPa 0 mm - 9 W/m² -
1787837893 13.89° C 94% 1018.7 hPa 0 mm - 6 W/m² -
1787837593 13.89° C 94% 1018.7 hPa 0 mm - 4 W/m² -
1787837293 13.89° C 94% 1018.5 hPa 0 mm - 3 W/m² -

* Rain latest hour (hover to see other rain measurements)
** Current wind speed in m/s (hover to see current wind gust speed)